Location: Oshawa
(43.9000°N, 78.8670°W)
Time: 16:17:22
(UTC-05:00)

Cosmos 1707 Rocket - Visible Passes

Search period start: 22 December 2014 00:00
Search period end: 01 January 2015 00:00
Orbit: 605 x 634 km, 82.5° (Epoch: 21 December)

Date Brightness Start Highest point End Pass type
(mag) Time Alt. Az. Time Alt. Az. Time Alt. Az.
28 Dec 6.7 07:11:19 10° ESE 07:12:42 11° E 07:14:04 10° ENE visible
31 Dec 5.7 18:08:28 10° NNE 18:08:44 11° NNE 18:08:44 11° NNE visible
31 Dec 6.3 19:45:49 10° NNW 19:46:03 11° NNW 19:46:03 11° NNW visible
